Regional Weather Roundup
Issued by NWS Northern Indiana

Home | Current Version | Previous Version | Graphics & Text | Print | Product List | Glossary On
Versions: 1 2 3 4 5 6 7 8 9 10 11 12 13 14 15 16 17 18 19 20 21 22 23 24 25 26 27 28 29 30 31 32 33 34 35 36 37 38 39 40 41 42 43 44 45 46 47 48 49 50
000
ASUS43 KIWX 020400
RWRIWX

KIWX WEATHER ROUNDUP
NATIONAL WEATHER SERVICE NORTHERN INDIANA
1200 AM EDT WED SEP 02 2015

NOTE: "FAIR" INDICATES FEW OR NO CLOUDS BELOW 12,000 FEET WITH NO
SIGNIFICANT WEATHER AND/OR OBSTRUCTIONS TO VISIBILITY.

* THESE STATIONS ARE NOT UNDER NWS QUALITY CONTROL. THEY ALSO MAY NOT
  REPORT WEATHER SUCH AS PRECIPITATION OR FOG.

INZ001>027-020500-
NORTHERN INDIANA

CITY           SKY/WX    TMP DP  RH WIND       PRES   REMARKS
SOUTH BEND     CLEAR     74  69  85 SW7       30.08S
GOSHEN         CLEAR     72  68  87 SW6       30.08S
MONTICELLO*    CLEAR     73  69  89 S3        30.07F
ANGOLA*        CLEAR     72  64  78 CALM      30.09S
FORT WAYNE     CLEAR     70  67  90 SW5       30.10S
PERU/GRISSOM   CLEAR     70  67  88 S5        30.09S

$$
INZ028>050-020500-
CENTRAL INDIANA

CITY           SKY/WX    TMP DP  RH WIND       PRES   REMARKS
LAFAYETTE      CLEAR     70  67  90 W3        30.09R
KOKOMO*        CLEAR     72  54  53 SW6       30.10S
MUNCIE*        CLEAR     71  67  87 SW5       30.11S
INDIANAPOLIS   CLEAR     73  66  78 SW5       30.10S

$$
MIZ043>046-050>051-056>058-064>065-071>073-077>080-020500-
SOUTHWEST LOWER MICHIGAN

CITY           SKY/WX    TMP DP  RH WIND       PRES   REMARKS
BATTLE CREEK   CLEAR     73  68  84 SW6       30.08R
BENTON HARBOR  CLEAR     76  70  82 S5        30.05S
COLDWATER*     CLEAR     72  71  95 SW5       30.08S
HILLSDALE*     CLEAR     74  73  96 SW5       30.10R
HOLLAND        PTCLDY    74  71  91 S5        30.05R
GRAND RAPIDS   CLEAR     74  70  87 S7        30.05S
KALAMAZOO      CLEAR     73  69  87 S6        30.07S
STURGIS*       CLEAR     72  68  88 SW5       30.08S
THREE RIVERS*  FAIR      71  69  95 SW3       30.08R

$$
OHZ001>008-015>018-024>025-020500-
NORTHWEST OHIO

CITY           SKY/WX    TMP DP  RH WIND       PRES   REMARKS
DEFIANCE       CLEAR     73  67  81 SW3       30.08S
FINDLAY        CLEAR     70  66  87 S5        30.09S
TOLEDO EXPRESS CLEAR     72  69  90 S5        30.08R
TOLEDO METCALF CLEAR     74  67  78 SW7       30.09R
LIMA           PTCLDY    70  67  90 S7        30.11S

$$
AND FOR LAKE MICHIGAN COASTAL AND OPEN LAKE BUOY OBSERVATIONS

STATION/POSITION TEMP    WIND        PRES    VSBY  WAVE
                 AIR SEA DIR/SP/G                  HT/PER
                 (F)     (DEG/KT/KT) (MB)    (MI)  (FT/S)
CALUMET HARBOR    79     190/  7/  9   N/A
MICHIGAN CITY     77     170/ 12/ 14   N/A
BURNS HARBOR      77     190/ 11/ 14 1017.9R
SAINT JOSEPH      79     180/  7/ 12 1017.6S
SOUTH LAKE BUOY   74 70  190/ 12/ 14 1015.9R         1/ 3
4 MI NW BRIDGMAN  76 73  240/  8/ 10   N/A           1
MICHIGAN CITY     76 73  210/  8/ 10   N/A           1/ 2

$$
&&


USA.gov is the U.S. government's official web portal to all federal, state and local government web resources and services.